Flag for Faroe Islands Weather past 2 weeks in Klaksvík, Faroe Islands, Faroe Islands

Now
52 °F

Duststorm.


Feels Like: 49 °F
Forecast: 48 / 52 °F
Wind: 8 mph from Northeast

Location: Thorshavn

Current Time: Aug 30, 2015 at 2:51:33 AM

Latest Report: Aug 30, 2015 at 1:00 AM


Visibility: 0 mi

Pressure: 29.74 "Hg

Humidity: 100%

Dew point: 52 °F

Location of KlaksvíkLocation

Historic Weather in Klaksvík — Graph

°F

Klaksvík temperature yesterday

Maximum temperature yesterday: 55 °F (at 1:00 PM)
Minimum temperature yesterday: 51 °F (at 2:00 AM)
Average temperature yesterday: 52 °F

Past Weeks' High & Low Weather Summary

 TemperatureHumidityPressure
High61 °F (Aug 25, 1:00 PM)100% (Aug 17, 11:00 PM)30.21 "Hg (Aug 17, 11:00 PM)
Low48 °F (Aug 18, 4:00 AM)65% (Aug 15, 11:00 AM)29.21 "Hg (Aug 26, 5:00 PM)
Average53 °F92%29.75 "Hg
* Reported Aug 15 1:00 AM — Aug 30 1:00 AM, Klaksvík, Weather by CustomWeather, © 2015

Note: Actual official high and low records may vary slightly from our data, if they occured in-between our weather recording intervals... More about our weather records

Advertising

Klaksvík weather history for previous 24 hours

 ConditionsComfort  
Time TempWeatherWind HumidityBarometerVisibility
1:00 AM
Sun, Aug 30
52 °FDuststorm.8 mph100%29.74 "Hg0 mi
12:00 AM51 °FFog.6 mph100%29.74 "Hg1 mi
11:00 PM
Sat, Aug 29
51 °FFog.5 mph100%29.73 "Hg2 mi
9:00 PM52 °FFog.6 mph99%29.70 "Hg5 mi
8:00 PM52 °FFog.7 mph97%29.69 "Hg4 mi
7:00 PM52 °FFog.6 mph97%29.68 "Hg4 mi
6:00 PM52 °FCool.6 mph99%29.67 "Hg3 mi
5:00 PM52 °FFog.8 mph97%29.67 "Hg4 mi
4:00 PM53 °FFog.8 mph96%29.66 "Hg4 mi
3:00 PM54 °FFog.10 mph93%29.65 "Hg6 mi
1:00 PM55 °FCool.6 mph94%29.64 "Hg6 mi
10:00 AM53 °FCool.6 mph99%29.62 "Hg3 mi
8:00 AM52 °FRain showers. Cloudy.5 mph99%29.61 "Hg4 mi
7:00 AM52 °FCool.5 mph99%29.60 "Hg4 mi
6:00 AM52 °FDrizzle. Overcast.7 mph100%29.60 "Hg4 mi
5:00 AM52 °FDrizzle. Overcast.6 mph99%29.60 "Hg4 mi
4:00 AM52 °FFog.8 mph99%29.61 "Hg4 mi
2:00 AM51 °FFog.5 mph99%29.62 "Hg3 mi
Weather by CustomWeather, © 2015

See weather overviewHow to use our weather pages